Hourly Weather Holmy

Today, 16 April, Friday

Time Temperature Precipitation Wind Pressure Humidity
00:00 +6°C° 0.3 mm 5 mps 745 mmHg 91%
01:00 +6°C° 0.3 mm 5 mps 745 mmHg 92%
02:00 +6°C° 0 mm 5 mps 745 mmHg 91%
03:00 +6°C° 0 mm 5 mps 745 mmHg 91%
04:00 +6°C° 0 mm 5 mps 745 mmHg 91%
05:00 +6°C° 0 mm 5 mps 745 mmHg 91%
06:00 +6°C° 0 mm 5 mps 745 mmHg 90%
07:00 +6°C° 0 mm 5 mps 746 mmHg 89%
08:00 +7°C° 0 mm 5 mps 746 mmHg 88%
09:00 +7°C° 0 mm 4 mps 746 mmHg 86%
10:00 +8°C° 0 mm 4 mps 746 mmHg 84%
11:00 +10°C° 0 mm 4 mps 747 mmHg 82%
12:00 +10°C° 0 mm 4 mps 747 mmHg 81%
13:00 +10°C° 0 mm 5 mps 747 mmHg 80%
14:00 +10°C° 0 mm 5 mps 747 mmHg 79%
15:00 +10°C° 0.1 mm 5 mps 747 mmHg 80%
16:00 +10°C° 0.1 mm 5 mps 747 mmHg 81%
17:00 +11°C° 0.1 mm 4 mps 747 mmHg 82%
18:00 +11°C° 0.6 mm 4 mps 747 mmHg 82%
19:00 +10°C° 0.6 mm 4 mps 747 mmHg 83%
20:00 +10°C° 0.6 mm 4 mps 747 mmHg 84%
21:00 +10°C° 1 mm 4 mps 747 mmHg 85%
22:00 +10°C° 1 mm 4 mps 747 mmHg 87%
23:00 +10°C° 1 mm 4 mps 747 mmHg 88%

Tomorrow, 17 April, Saturday

Time Temperature Precipitation Wind Pressure Humidity
00:00 +8°C° 0.3 mm 4 mps 747 mmHg 89%
01:00 +8°C° 0.3 mm 4 mps 747 mmHg 89%
02:00 +8°C° 0.3 mm 4 mps 747 mmHg 89%
03:00 +8°C° 0 mm 4 mps 747 mmHg 90%
04:00 +8°C° 0 mm 4 mps 747 mmHg 90%
05:00 +7°C° 0 mm 4 mps 748 mmHg 90%
06:00 +8°C° 0 mm 4 mps 748 mmHg 88%
07:00 +8°C° 0 mm 4 mps 748 mmHg 86%
08:00 +9°C° 0 mm 3 mps 749 mmHg 84%
09:00 +10°C° 0 mm 3 mps 749 mmHg 80%
10:00 +11°C° 0 mm 3 mps 749 mmHg 77%
11:00 +11°C° 0 mm 3 mps 749 mmHg 73%
12:00 +12°C° 0 mm 3 mps 749 mmHg 71%
13:00 +12°C° 0 mm 4 mps 749 mmHg 69%
14:00 +13°C° 0 mm 4 mps 749 mmHg 67%
15:00 +12°C° 0 mm 4 mps 749 mmHg 69%
16:00 +12°C° 0 mm 4 mps 749 mmHg 72%
17:00 +11°C° 0 mm 4 mps 749 mmHg 74%
18:00 +11°C° 0 mm 4 mps 749 mmHg 74%
19:00 +11°C° 0 mm 4 mps 748 mmHg 73%
20:00 +11°C° 0 mm 4 mps 748 mmHg 73%
21:00 +10°C° 0 mm 4 mps 748 mmHg 74%
22:00 +8°C° 0 mm 5 mps 748 mmHg 75%
23:00 +8°C° 0 mm 5 mps 748 mmHg 77%

Day after tomorrow, 18 April, Sunday

Time Temperature Precipitation Wind Pressure Humidity
00:00 +7°C° 0 mm 4 mps 748 mmHg 76%
01:00 +6°C° 0 mm 4 mps 748 mmHg 75%
02:00 +6°C° 0 mm 4 mps 748 mmHg 74%
03:00 +6°C° 0 mm 4 mps 748 mmHg 74%
04:00 +5°C° 0 mm 4 mps 748 mmHg 75%
05:00 +5°C° 0 mm 3 mps 749 mmHg 75%
06:00 +5°C° 0 mm 3 mps 749 mmHg 76%
07:00 +5°C° 0 mm 3 mps 749 mmHg 76%
08:00 +5°C° 0 mm 3 mps 749 mmHg 76%
09:00 +7°C° 0 mm 3 mps 749 mmHg 76%
10:00 +7°C° 0 mm 3 mps 749 mmHg 77%
11:00 +7°C° 0 mm 3 mps 749 mmHg 77%
12:00 +7°C° 0.1 mm 3 mps 749 mmHg 79%
13:00 +6°C° 0.1 mm 4 mps 750 mmHg 80%
14:00 +6°C° 0.1 mm 4 mps 750 mmHg 82%
15:00 +6°C° 0.1 mm 4 mps 750 mmHg 82%
16:00 +6°C° 0.1 mm 4 mps 750 mmHg 82%
17:00 +6°C° 0.1 mm 4 mps 750 mmHg 82%
18:00 +6°C° 0 mm 4 mps 750 mmHg 83%
19:00 +5°C° 0 mm 4 mps 750 mmHg 85%
20:00 +5°C° 0 mm 4 mps 750 mmHg 86%
21:00 +5°C° 0 mm 4 mps 750 mmHg 87%
22:00 +5°C° 0 mm 4 mps 750 mmHg 88%
23:00 +4°C° 0 mm 3 mps 750 mmHg 89%

19 April, Monday

Time Temperature Precipitation Wind Pressure Humidity
00:00 +4°C° 0 mm 3 mps 750 mmHg 89%
01:00 +4°C° 0 mm 3 mps 750 mmHg 89%
02:00 +4°C° 0 mm 3 mps 750 mmHg 89%
03:00 +4°C° 0 mm 4 mps 749 mmHg 88%
04:00 +4°C° 0 mm 4 mps 749 mmHg 88%
05:00 +4°C° 0 mm 4 mps 749 mmHg 87%
06:00 +5°C° 0 mm 4 mps 749 mmHg 87%
07:00 +5°C° 0 mm 4 mps 749 mmHg 87%
08:00 +5°C° 0 mm 4 mps 749 mmHg 87%
09:00 +6°C° 0 mm 5 mps 749 mmHg 85%
10:00 +6°C° 0 mm 5 mps 749 mmHg 82%
11:00 +7°C° 0 mm 5 mps 748 mmHg 79%
12:00 +6°C° 0.2 mm 5 mps 748 mmHg 82%
13:00 +6°C° 0.2 mm 5 mps 748 mmHg 84%
14:00 +6°C° 0.2 mm 5 mps 748 mmHg 87%
15:00 +6°C° 0.6 mm 5 mps 748 mmHg 87%
16:00 +6°C° 0.6 mm 5 mps 748 mmHg 87%
17:00 +6°C° 0.6 mm 5 mps 747 mmHg 88%
18:00 +6°C° 2 mm 5 mps 747 mmHg 88%
19:00 +6°C° 2 mm 5 mps 747 mmHg 88%
20:00 +5°C° 2 mm 5 mps 747 mmHg 89%
21:00 +5°C° 0.7 mm 5 mps 747 mmHg 88%
22:00 +5°C° 0.7 mm 5 mps 746 mmHg 87%
23:00 +5°C° 0.7 mm 5 mps 746 mmHg 87%

20 April, Tuesday

Time Temperature Precipitation Wind Pressure Humidity
00:00 +5°C° 0 mm 5 mps 745 mmHg 88%
01:00 +5°C° 0 mm 5 mps 745 mmHg 89%
02:00 +5°C° 0 mm 5 mps 745 mmHg 90%
03:00 +5°C° 0.5 mm 4 mps 744 mmHg 91%
04:00 +5°C° 0.5 mm 4 mps 743 mmHg 92%
05:00 +4°C° 0.5 mm 4 mps 743 mmHg 93%
06:00 +4°C° 0.5 mm 4 mps 742 mmHg 93%
07:00 +3°C° 0.5 mm 5 mps 741 mmHg 92%
08:00 +3°C° 0.5 mm 5 mps 741 mmHg 92%
09:00 +3°C° 0.4 mm 5 mps 740 mmHg 92%
10:00 +3°C° 0.4 mm 5 mps 740 mmHg 92%
11:00 +3°C° 0.4 mm 5 mps 739 mmHg 91%
12:00 +2°C° 1.7 mm 5 mps 738 mmHg 93%
13:00 +2°C° 1.7 mm 5 mps 737 mmHg 94%
14:00 +2°C° 1.7 mm 6 mps 736 mmHg 96%
15:00 +2°C° 1 mm 6 mps 735 mmHg 96%
16:00 +2°C° 1 mm 6 mps 734 mmHg 96%
17:00 +2°C° 1 mm 6 mps 733 mmHg 96%
18:00 +2°C° 2.3 mm 5 mps 732 mmHg 96%
19:00 +2°C° 2.3 mm 5 mps 732 mmHg 96%
20:00 +2°C° 2.3 mm 5 mps 731 mmHg 96%
21:00 +4°C° 1.6 mm 4 mps 730 mmHg 96%
22:00 +4°C° 1.6 mm 4 mps 730 mmHg 96%
23:00 +5°C° 1.6 mm 4 mps 729 mmHg 95%

21 April, Wednesday

Time Temperature Precipitation Wind Pressure Humidity
00:00 +5°C° 0.2 mm 4 mps 729 mmHg 95%
01:00 +7°C° 0.2 mm 3 mps 728 mmHg 94%
02:00 +8°C° 0.2 mm 3 mps 728 mmHg 94%
03:00 +6°C° 0.3 mm 4 mps 728 mmHg 93%
04:00 +5°C° 0.3 mm 4 mps 727 mmHg 93%
05:00 +3°C° 0.3 mm 5 mps 727 mmHg 92%
06:00 +2°C° 0.2 mm 5 mps 727 mmHg 94%
07:00 +1°C° 0.2 mm 5 mps 727 mmHg 95%
08:00 0°C° 0.2 mm 5 mps 727 mmHg 96%
09:00 0°C° 0.8 mm 5 mps 728 mmHg 96%
10:00 -1°C° 0.8 mm 6 mps 729 mmHg 96%
11:00 -1°C° 0.8 mm 6 mps 730 mmHg 96%
12:00 -1°C° 1.1 mm 6 mps 730 mmHg 96%
13:00 +1°C° 1.1 mm 6 mps 731 mmHg 96%
14:00 +1°C° 1.1 mm 6 mps 732 mmHg 96%
15:00 +1°C° 0.5 mm 6 mps 733 mmHg 96%
16:00 +1°C° 0.5 mm 5 mps 733 mmHg 96%
17:00 +2°C° 0.5 mm 5 mps 734 mmHg 97%
18:00 +2°C° 0.1 mm 5 mps 735 mmHg 97%
19:00 +2°C° 0.1 mm 5 mps 736 mmHg 97%
20:00 +2°C° 0.1 mm 5 mps 736 mmHg 97%
21:00 +1°C° 0.1 mm 4 mps 737 mmHg 97%
22:00 +1°C° 0.1 mm 4 mps 738 mmHg 97%
23:00 +1°C° 0.1 mm 4 mps 739 mmHg 97%
Show more